Location: Bois de la Silve
(44.4667°N, 6.7833°E)
Time: 07:33:24
(UTC+00:00)

Cosmos 1850 Rocket - Pass Details

Date: 14 July 2020
Orbit: 755 x 785 km, 74.0° (Epoch: 14 August)

Event Time Altitude Azimuth Distance (km) Brightness Sun altitude
Exits shadow 02:46:38 14° 206° (SSW) 2,095 5.7 -11.2°
Maximum altitude 02:51:19 76° 292° (WNW) 814 4.1 -10.6°
Drops below altitude 10° 02:56:41 10° 18° (NNE) 2,350 7.6 -10.0°
Sets 02:59:05 0° 20° (NNE) 3,280 8.6 -9.7°
